Wind_Speed
28 31 34 39 40 38 35 33 32 32 35 36 33 33 32 30 32 32 30 26 23 19 20 24 25 23 21 21 25 28 25 24 22 19 17 15 13 13 16 16 15 18 17
14 18 24 28 37 38 39 38 36 34 34 37 36 35 33 32 30 35 33 29 25 23 21 23 25 24 22 22 27 30 28 25 25 22 16 15 14 16 17 19 19 16 23
8 7 10 18 26 37 34 36 39 37 34 34 37 36 35 34 33 32 34 33 29 27 24 24 24 24 23 23 27 30 30 28 28 25 16 11 11 16 19 22 20 22 20
3 5 5 8 16 25 32 34 37 36 37 34 35 38 38 38 36 30 34 34 33 30 28 27 25 24 22 24 27 29 30 29 28 27 25 16 10 12 12 23 23 24 22
5 2 3 3 6 14 25 31 37 36 32 34 36 35 35 35 34 33 33 32 35 35 31 28 27 28 26 22 26 30 30 28 28 28 28 24 17 15 12 16 26 26 22
10 7 4 2 1 6 14 24 32 32 29 33 35 35 34 33 32 31 32 29 31 31 32 30 30 29 29 27 23 28 30 30 28 28 27 29 26 22 19 15 13 23 29
14 11 9 3 1 1 5 13 22 30 31 31 32 33 33 30 31 28 27 28 30 32 33 32 31 32 31 30 26 26 30 31 30 29 30 28 29 27 23 21 18 17 15
18 14 12 10 6 3 1 6 14 26 29 30 32 33 32 31 29 26 25 26 27 27 28 32 32 30 31 30 29 28 29 30 30 31 30 29 28 28 28 28 24 20 18
22 18 15 12 9 7 2 4 12 20 26 28 31 32 33 31 28 23 22 24 24 25 24 26 30 31 30 30 29 30 28 30 30 29 29 29 28 29 29 30 30 27 24
26 23 19 15 11 9 6 3 5 15 21 23 29 30 32 30 31 29 25 24 25 25 25 26 28 28 29 30 32 32 30 29 30 31 32 31 31 32 34 32 31 30 28
28 26 22 18 15 11 8 6 3 7 15 21 24 26 27 29 30 31 30 27 26 26 25 25 27 26 27 29 34 34 33 33 32 32 31 32 34 33 33 34 33 33 31
27 27 25 23 20 16 12 9 6 2 5 15 20 22 27 24 28 29 30 27 26 25 25 22 24 24 25 26 28 30 30 33 34 36 36 35 35 36 34 34 35 34 33
28 29 29 28 26 22 17 13 8 4 4 7 13 18 24 25 25 26 24 22 23 24 29 27 26 27 27 27 26 29 31 33 33 35 38 38 38 38 36 35 34 33 33
28 27 32 29 27 25 22 18 13 9 5 6 10 13 21 26 25 26 24 25 27 28 31 30 30 30 30 31 32 31 33 33 36 32 34 37 37 37 34 32 28 28 30
28 29 31 31 28 26 24 21 18 13 10 6 6 10 15 20 25 24 27 23 27 28 30 30 31 31 31 32 31 30 33 30 29 30 32 30 27 26 25 27 26 25 25
28 29 30 30 29 27 25 23 21 18 14 11 7 5 8 15 17 19 19 20 20 20 22 22 22 23 24 25 26 26 25 24 24 29 26 23 20 20 23 26 24 21 21
29 29 28 29 28 26 24 24 21 19 17 15 13 8 5 8 13 17 19 19 19 20 20 20 21 20 19 18 20 20 20 20 20 20 21 20 20 21 22 25 24 21 21
26 26 27 27 26 24 23 22 20 20 19 17 17 15 11 7 8 12 18 22 24 21 17 16 15 17 17 16 16 17 16 15 15 14 15 16 17 20 23 22 25 31 27
22 22 22 25 26 25 24 23 22 22 21 21 20 18 15 13 11 9 11 16 21 23 17 17 17 16 17 15 17 15 13 11 11 11 11 12 15 19 21 22 24 21 25
20 21 22 25 26 25 24 25 25 25 25 24 21 17 16 15 16 13 11 10 13 18 20 20 19 17 15 15 16 17 12 13 12 13 13 14 16 18 20 24 23 21 22
21 20 22 25 25 24 25 26 26 25 23 22 20 17 16 16 15 16 14 13 13 14 19 19 19 19 18 16 15 15 13 13 12 10 11 13 16 18 18 22 24 27 25
21 21 23 25 24 23 24 26 26 24 22 23 22 20 18 16 15 15 15 16 14 16 16 20 19 18 17 19 17 15 13 12 11 12 12 13 12 11 12 15 17 18 15
21 20 21 22 25 24 24 25 25 24 24 23 25 23 21 18 16 16 18 17 14 12 13 14 17 17 16 14 12 12 10 9 8 9 10 10 10 11 12 13 13 14 14
20 19 19 21 23 24 23 23 23 22 23 23 24 23 23 21 19 18 19 19 19 15 13 13 11 10 9 10 10 9 8 7 6 7 7 8 9 10 9 8 10 10 9
18 18 19 20 21 21 22 23 23 23 23 23 23 24 22 21 20 19 19 17 17 17 15 13 11 8 7 6 3 6 7 9 10 8 8 8 8 8 8 10 10 10 9
17 17 17 18 19 19 19 20 21 23 23 21 23 21 21 20 20 18 16 16 14 13 13 12 12 10 10 9 4 2 6 9 11 11 10 10 11 12 12 11 12 12 10
Wind_Direction
235 241 243 237 232 231 229 227 225 224 218 219 219 219 218 219 220 216 215 213 209 211 207 201 205 206 207 205 199 192 195 194 192 188 196 202 208 205 208 206 210 209 213
220 238 238 233 228 228 227 225 223 222 217 218 221 221 218 223 229 223 216 214 212 213 209 204 204 205 205 206 203 198 193 199 194 193 195 204 224 229 219 220 222 223 221
182 193 217 221 224 222 221 219 219 220 220 220 219 221 221 224 226 222 223 213 215 220 214 207 206 205 209 212 208 205 206 202 197 198 196 204 218 222 218 219 218 224 223
144 143 172 203 207 210 216 213 211 217 219 219 222 220 222 221 225 228 214 215 215 217 217 212 209 209 212 213 213 210 212 214 213 206 216 219 207 203 217 220 222 225 222
72 101 141 177 201 202 205 208 206 207 216 218 221 223 222 226 229 225 219 217 222 217 218 212 213 213 216 218 218 216 215 216 219 218 215 220 222 221 218 221 225 233 233
72 62 69 68 209 199 200 204 204 205 210 218 219 221 224 223 222 223 220 222 220 228 213 217 216 218 219 221 222 224 224 225 225 227 227 224 224 223 228 234 241 241 242
53 52 54 55 72 61 194 198 198 200 207 217 218 217 222 224 222 222 221 222 220 217 215 219 222 221 219 223 223 225 228 228 230 231 231 236 240 245 246 250 254 257 257
24 42 44 49 44 47 103 186 193 194 202 207 216 220 219 219 226 230 231 231 226 226 222 227 225 227 222 225 227 230 226 232 235 238 236 240 244 248 250 249 252 252 261
18 28 39 46 51 54 62 193 199 198 202 204 208 217 220 219 219 223 227 220 223 225 228 232 231 230 223 226 231 235 234 229 233 239 240 245 248 249 251 251 249 251 258
19 25 32 39 48 56 61 88 185 209 208 206 209 213 220 220 218 220 222 221 225 226 230 231 227 227 227 226 227 235 237 241 237 239 239 241 248 248 247 247 249 249 252
17 21 27 34 45 53 61 65 101 191 214 211 212 211 215 222 223 223 221 221 223 226 231 232 233 229 232 234 235 235 237 241 244 245 249 247 247 251 247 244 245 249 248
16 20 29 31 38 47 53 54 71 131 165 209 214 217 219 215 222 225 222 224 224 222 227 228 225 228 231 235 239 238 242 247 248 251 253 253 255 245 247 247 244 243 248
12 16 26 30 33 36 43 48 56 75 177 167 185 201 218 216 218 222 211 209 218 222 229 226 230 230 229 233 237 241 245 249 249 251 255 256 254 254 247 245 243 245 247
10 11 20 26 29 35 35 40 48 57 80 164 182 180 188 200 206 201 203 211 220 229 231 233 234 235 238 240 238 240 243 248 256 253 258 257 261 256 249 245 242 246 246
9 8 15 22 25 30 35 36 41 48 58 87 159 176 197 191 197 205 214 225 225 225 227 231 236 237 239 237 238 241 243 248 250 250 256 257 259 251 244 235 236 238 241
7 7 18 21 24 26 31 34 34 38 48 59 78 130 182 187 194 200 206 217 219 219 218 218 221 225 237 236 239 239 238 237 241 243 246 245 243 247 242 234 229 232 241
10 11 18 22 23 26 29 34 36 35 42 53 61 76 132 172 171 186 198 201 212 207 210 214 215 217 218 214 222 226 224 226 229 235 237 238 238 238 243 224 221 224 233
10 12 17 21 25 29 35 38 40 41 41 44 51 58 70 114 162 185 187 194 195 197 201 205 206 209 211 210 213 214 214 215 219 222 231 233 235 234 218 218 233 240 248
11 11 19 22 28 31 36 39 42 44 44 42 42 44 54 67 101 140 165 175 183 186 196 197 199 208 209 208 200 193 193 199 205 207 214 219 224 224 219 224 228 234 238
14 13 22 26 29 31 36 38 39 42 42 41 39 38 45 56 63 78 108 134 165 170 184 195 193 199 197 201 196 194 202 199 202 213 218 221 224 223 230 231 230 246 251
15 19 28 29 27 30 35 38 39 39 40 44 43 43 47 49 54 65 80 103 130 141 145 156 164 175 180 170 178 179 186 203 203 193 205 223 232 236 236 242 245 248 262
18 24 28 28 28 31 35 34 35 36 39 45 45 47 49 52 51 58 67 80 99 111 114 122 127 135 148 157 158 164 172 176 185 195 196 201 212 223 226 227 228 238 236
17 24 27 28 30 30 32 31 29 31 36 40 47 46 51 52 56 59 58 64 70 74 75 91 103 108 121 133 137 148 154 166 189 199 209 216 217 216 219 226 232 241 241
16 21 24 26 29 32 32 32 29 30 34 35 40 42 49 48 51 55 56 53 47 51 51 49 65 82 113 146 140 141 149 174 188 204 215 216 214 219 224 229 232 237 244
14 21 22 21 21 25 31 30 27 27 34 32 33 34 39 47 49 45 45 47 46 40 44 33 37 48 55 44 118 163 174 186 197 197 212 220 225 226 231 235 243 239 241
11 17 22 21 18 19 22 28 28 28 30 32 32 31 30 38 42 44 44 41 37 36 39 37 35 35 29 12 353 258 216 212 208 207 211 216 227 235 241 243 246 248 253
Height
1457 1461 1464 1467 1471 1475 1479 1483 1487 1490 1495 1499 1503 1507 1510 1516 1519 1525 1529 1532 1536 1539 1543 1547 1550 1553 1556 1560 1563 1567 1572 1575 1579 1582 1585 1588 1591 1592 1594 1596 1598 1600 1602
1448 1451 1454 1458 1460 1465 1471 1476 1480 1484 1488 1493 1498 1501 1506 1511 1515 1519 1524 1528 1532 1535 1539 1543 1546 1550 1553 1556 1559 1564 1568 1572 1576 1580 1584 1587 1590 1590 1592 1594 1596 1598 1600
1444 1445 1447 1450 1452 1456 1461 1466 1473 1478 1482 1487 1491 1495 1501 1506 1508 1513 1517 1523 1527 1531 1535 1539 1543 1546 1549 1552 1556 1560 1565 1569 1573 1577 1580 1583 1584 1586 1589 1591 1593 1595 1597
1444 1441 1443 1446 1447 1448 1453 1458 1465 1471 1476 1481 1484 1488 1493 1497 1502 1507 1512 1517 1522 1526 1530 1535 1539 1543 1546 1548 1552 1557 1561 1566 1569 1574 1576 1578 1580 1583 1585 1587 1590 1591 1593
1442 1440 1441 1443 1444 1445 1447 1452 1457 1464 1470 1474 1479 1483 1487 1493 1498 1502 1507 1511 1517 1521 1525 1530 1534 1539 1542 1545 1549 1553 1557 1561 1565 1568 1571 1575 1577 1579 1581 1582 1585 1587 1589
1439 1441 1441 1442 1443 1443 1443 1447 1452 1459 1465 1469 1473 1477 1482 1487 1492 1496 1501 1506 1511 1514 1518 1524 1528 1534 1538 1541 1545 1549 1553 1556 1560 1564 1567 1570 1572 1575 1578 1580 1582 1584 1586
1441 1441 1440 1441 1442 1441 1442 1443 1447 1453 1458 1463 1468 1472 1477 1482 1487 1491 1496 1500 1504 1508 1513 1519 1523 1528 1532 1536 1540 1544 1548 1551 1555 1559 1562 1566 1568 1572 1574 1577 1579 1581 1582
1446 1443 1442 1441 1441 1440 1441 1442 1444 1448 1453 1457 1462 1467 1472 1477 1482 1486 1490 1494 1499 1504 1509 1514 1518 1522 1527 1531 1535 1537 1542 1546 1549 1553 1556 1560 1563 1566 1569 1572 1575 1577 1578
1452 1446 1443 1441 1440 1439 1440 1441 1442 1444 1447 1451 1456 1461 1466 1471 1476 1481 1485 1489 1494 1499 1504 1508 1512 1516 1520 1525 1529 1533 1536 1539 1543 1546 1550 1553 1556 1560 1563 1566 1569 1572 1573
1456 1450 1445 1443 1441 1439 1439 1440 1440 1441 1444 1447 1451 1455 1460 1465 1470 1475 1480 1484 1489 1494 1498 1502 1506 1510 1514 1518 1523 1526 1530 1533 1536 1540 1542 1545 1548 1552 1556 1559 1562 1565 1567
1460 1455 1449 1445 1442 1440 1438 1438 1438 1439 1441 1443 1446 1451 1455 1460 1464 1469 1474 1478 1483 1487 1492 1496 1500 1503 1507 1511 1515 1519 1523 1526 1530 1533 1535 1538 1542 1544 1548 1551 1554 1557 1560
1465 1460 1454 1448 1443 1440 1439 1438 1437 1438 1439 1440 1443 1446 1450 1454 1459 1463 1468 1473 1477 1482 1487 1490 1493 1497 1501 1504 1507 1509 1513 1519 1522 1525 1528 1531 1534 1534 1539 1542 1545 1548 1552
1469 1464 1457 1451 1446 1442 1439 1438 1437 1436 1437 1437 1439 1442 1445 1449 1454 1458 1463 1467 1471 1476 1481 1484 1487 1490 1494 1498 1501 1505 1508 1511 1514 1517 1519 1522 1525 1527 1529 1533 1537 1541 1544
1475 1470 1462 1456 1451 1446 1443 1440 1438 1436 1436 1436 1436 1438 1441 1444 1449 1452 1457 1462 1466 1471 1474 1477 1480 1484 1487 1491 1494 1497 1499 1502 1505 1507 1510 1512 1514 1517 1520 1525 1529 1533 1535
1479 1475 1467 1461 1455 1449 1445 1442 1439 1437 1436 1435 1434 1435 1437 1440 1444 1448 1452 1457 1460 1463 1467 1470 1473 1476 1479 1482 1485 1488 1491 1494 1496 1498 1502 1504 1507 1509 1512 1517 1521 1525 1528
1485 1480 1472 1466 1459 1454 1449 1446 1442 1439 1437 1434 1433 1434 1435 1438 1440 1443 1447 1451 1454 1457 1460 1463 1465 1468 1471 1475 1477 1480 1482 1484 1487 1491 1494 1497 1499 1503 1506 1509 1514 1517 1520
1489 1483 1476 1470 1465 1459 1454 1449 1446 1443 1439 1436 1435 1434 1435 1434 1435 1438 1442 1446 1449 1452 1455 1458 1460 1463 1466 1468 1471 1473 1475 1478 1481 1484 1486 1490 1492 1497 1500 1502 1507 1510 1514
1491 1486 1480 1475 1470 1463 1458 1454 1450 1446 1443 1440 1437 1434 1433 1432 1432 1435 1438 1441 1445 1448 1451 1453 1456 1458 1461 1463 1465 1468 1471 1473 1476 1478 1481 1484 1487 1490 1494 1497 1501 1504 1506
1495 1491 1486 1480 1472 1467 1463 1459 1455 1450 1446 1443 1439 1437 1435 1434 1433 1434 1435 1437 1439 1442 1446 1449 1451 1454 1457 1459 1462 1464 1467 1470 1472 1474 1477 1480 1482 1486 1489 1492 1495 1498 1501
1497 1493 1487 1481 1475 1472 1468 1463 1457 1452 1450 1447 1443 1442 1439 1438 1435 1435 1434 1436 1436 1437 1442 1445 1448 1451 1454 1456 1459 1462 1464 1467 1469 1471 1473 1476 1479 1482 1485 1488 1490 1492 1494
1499 1495 1488 1483 1480 1476 1472 1468 1465 1460 1456 1452 1449 1446 1443 1441 1439 1437 1437 1436 1436 1439 1440 1442 1444 1447 1450 1453 1455 1458 1460 1463 1466 1468 1470 1473 1475 1477 1480 1482 1484 1485 1488
1501 1496 1490 1488 1485 1480 1476 1474 1470 1467 1461 1456 1454 1450 1447 1445 1444 1442 1441 1440 1441 1442 1442 1442 1444 1445 1448 1450 1453 1456 1459 1461 1463 1466 1467 1470 1472 1474 1476 1477 1479 1481 1482
1503 1499 1495 1492 1488 1483 1480 1477 1474 1468 1464 1461 1457 1454 1453 1450 1449 1448 1447 1445 1445 1445 1445 1444 1444 1446 1448 1449 1452 1453 1456 1459 1462 1464 1466 1467 1469 1471 1473 1475 1476 1477 1478
1505 1501 1499 1497 1492 1489 1486 1483 1478 1473 1469 1466 1462 1459 1456 1454 1453 1451 1450 1451 1450 1449 1448 1449 1447 1446 1447 1449 1451 1453 1455 1458 1461 1463 1464 1466 1468 1470 1470 1471 1472 1473 1474
1508 1504 1501 1498 1495 1492 1489 1486 1481 1477 1472 1470 1467 1464 1461 1458 1458 1457 1456 1456 1455 1454 1453 1454 1452 1451 1450 1450 1452 1453 1455 1457 1460 1461 1463 1465 1466 1467 1468 1468 1469 1470 1471
1508 1505 1502 1501 1498 1495 1492 1488 1484 1481 1478 1475 1473 1470 1467 1464 1461 1461 1460 1460 1459 1459 1457 1455 1454 1453 1451 1451 1451 1453 1454 1455 1456 1459 1461 1462 1463 1464 1465 1466 1467 1468 1469